This is the latest recevied weather packets stored in our database for station/object YF9UAG-17. If no packets are shown the sender has not sent any weather packets the latest 10 day(s).
| Time | Temp. | Humidity | Pressure | Rain* | Wind** | Luminosity | Snow |
|---|---|---|---|---|---|---|---|
| 1787678273 | 28.33° C | 48% | 1033.6 hPa | - | - | - | - |
| 1787677670 | 28.33° C | 49% | 1033.6 hPa | - | - | - | - |
| 1787677067 | 28.33° C | 49% | 1033.7 hPa | - | - | - | - |
| 1787676464 | 28.33° C | 49% | 1033.8 hPa | - | - | - | - |
| 1787675860 | 28.33° C | 49% | 1034 hPa | - | - | - | - |
| 1787675257 | 28.89° C | 49% | 1034 hPa | - | - | - | - |
| 1787674655 | 28.89° C | 50% | 1034.1 hPa | - | - | - | - |
| 1787674050 | 28.89° C | 50% | 1034.2 hPa | - | - | - | - |
| 1787673447 | 28.89° C | 50% | 1034.3 hPa | - | - | - | - |
| 1787672844 | 28.89° C | 50% | 1034.3 hPa | - | - | - | - |
| 1787672240 | 28.89° C | 50% | 1034.4 hPa | - | - | - | - |
| 1787671638 | 28.89° C | 50% | 1034.3 hPa | - | - | - | - |
| 1787671034 | 28.33° C | 50% | 1034.3 hPa | - | - | - | - |
| 1787670431 | 29.44° C | 50% | 1034.3 hPa | - | - | - | - |
| 1787669828 | 28.89° C | 51% | 1034.3 hPa | - | - | - | - |
| 1787669225 | 29.44° C | 50% | 1034.2 hPa | - | - | - | - |
| 1787668622 | 30° C | 49% | 1034.1 hPa | - | - | - | - |
| 1787668019 | 30° C | 49% | 1034 hPa | - | - | - | - |
| 1787667416 | 29.44° C | 51% | 1033.8 hPa | - | - | - | - |
| 1787666813 | 29.44° C | 50% | 1033.9 hPa | - | - | - | - |
| 1787666207 | 30° C | 51% | 1033.9 hPa | - | - | - | - |
| 1787665604 | 30° C | 51% | 1033.9 hPa | - | - | - | - |
| 1787665000 | 30° C | 51% | 1033.9 hPa | - | - | - | - |
| 1787664396 | 30.56° C | 50% | 1033.9 hPa | - | - | - | - |
| 1787663793 | 30.56° C | 50% | 1033.9 hPa | - | - | - | - |
* Rain since midnight (hover to see other rain measurements)
** Current wind speed in m/s (hover to see current wind gust speed)